Location: Waco, TX
(31.5480°N, 97.1670°W)
Time: 20:17:59

ISS - Pass Details

Date: 18 March 2018
Orbit: 403 x 406 km, 51.6° (Epoch: 19 March)

Event Time Altitude Azimuth Distance (km) Brightness Sun altitude
Rises 00:17:25 0° 262° (W) 2,316 - -54.1°
Reaches altitude 10° 00:20:05 10° 286° (WNW) 1,459 - -54.4°
Maximum altitude 00:22:10 16° 325° (NW) 1,165 - -54.7°
Drops below altitude 10° 00:24:15 10° 5° (N) 1,462 - -54.9°
Sets 00:26:57 0° 29° (NNE) 2,325 - -55.2°
